Regional Weather Roundup
Issued by NWS Charleston, SC

Current Version | Previous Version | Text Only | Print | Product List | Glossary Off
Versions: 1 2 3 4 5 6 7 8 9 10 11 12 13 14 15 16 17 18 19 20 21 22 23 24 25 26 27 28 29 30 31 32 33 34 35 36 37 38 39 40 41 42 43 44 45 46 47 48 49 50
000 ASUS42 KCHS 021827 RWRCHS REGIONAL WEATHER ROUNDUP NATIONAL WEATHER SERVICE CHARLESTON SC 100 PM EST FRI DEC 02 2016 NOTE: "FAIR" INDICATES FEW OR NO CLOUDS BELOW 12,000 FEET WITH NO SIGNIFICANT WEATHER AND/OR OBSTRUCTIONS TO VISIBILITY. NOT ALL STATIONS ARE QUALITY CONTROLLED. USE DATA WITH CAUTION... ESPECIALLY DEWPOINT OBSERVATIONS. SCZ027-030-031-034>040-042>050-021900- ...SOUTHEAST SOUTH CAROLINA... CITY SKY/WX TMP DP RH WIND PRES REMARKS N CHARLESTON SUNNY 61 33 35 N8 30.15F 6HR MIN TEMP: 38; 6HR MAX TEMP: 62; WATERFRONT PRK N/A 57 40 52 N7 30.14F MOUNT PLEASANT FAIR 59 36 41 NW8 30.15S JOHNS ISLAND FAIR 61 36 39 N8 30.15S PINOPOLIS N/A 54 37 54 VRB3 30.07F MONCKS CORNER FAIR 57 32 38 N3 30.16S SUMMERVILLE FAIR 59 36 41 NW9 30.16F BEAUFORT MCAS SUNNY 61 37 41 N9 30.16F 6HR MIN TEMP: 43; 6HR MAX TEMP: 61; BEAUFORT ARPT FAIR 59 37 44 NW5 30.15F HILTON HEAD IS SUNNY 61 41 48 NW8 30.17F WALTERBORO CLEAR 61 34 36 NW8 30.17S ALLENDALE FAIR 59 34 38 N7 30.16F ...SOUTHERN MIDLANDS AND PEE DEE... CITY SKY/WX TMP DP RH WIND PRES REMARKS GEORGETOWN FAIR 57 32 38 NW5 30.14F KINGSTREE FAIR 57 32 38 NW5 30.14F ORANGEBURG SUNNY 58 31 35 VRB3 30.17F 6HR MIN TEMP: 37; 6HR MAX TEMP: 58; BARNWELL NOT AVBL AIKEN FAIR 55 32 41 NW5 30.20F MANNING NOT AVBL COLUMBIA SUNNY 59 31 34 NW9 30.16F 6HR MIN TEMP: 35; 6HR MAX TEMP: 59; SUMTER SUNNY 58 33 38 W12 30.14F 6HR MIN TEMP: 39; 6HR MAX TEMP: 59; FLORENCE SUNNY 58 33 39 N8 30.15F 6HR MIN TEMP: 37; 6HR MAX TEMP: 58; MYRTLE BEACH SUNNY 57 32 38 N7 30.15F N MYRTLE BEACH SUNNY 59 33 37 VRB7 30.12F 6HR MIN TEMP: 41; 6HR MAX TEMP: 59; $$ GAZ063-065-086>088-099>101-113>116-118-119-134>141-150-021900- ...SOUTHEAST GEORGIA... CITY SKY/WX TMP DP RH WIND PRES REMARKS SAVANNAH ARPT MOSUNNY 61 35 37 NW12 30.17F 6HR MIN TEMP: 39; 6HR MAX TEMP: 62; HUNTER AAF SUNNY 62 42 47 NW12 30.14F 6HR MIN TEMP: 37; 6HR MAX TEMP: 62; FORT STEWART SUNNY 62 36 37 NW3 30.15F 6HR MIN TEMP: 39; 6HR MAX TEMP: 62; STATESBORO SUNNY 61 38 42 N7 30.17F SYLVANIA CLEAR N/A N/A N/A W5 30.18F CLAXTON FAIR 62 38 40 W9 30.17F ...CSRA...CENTRAL AND FAR SOUTHEAST GEORGIA... CITY SKY/WX TMP DP RH WIND PRES REMARKS THOMSON SUNNY 61 35 37 W5 30.23F AUGUSTA-BUSH SUNNY 61 32 33 NW6 30.18F 6HR MIN TEMP: 34; 6HR MAX TEMP: 61; AUGUSTA-DANIEL SUNNY 59 30 33 W5 30.19F SWAINSBORO FAIR 61 32 33 NW9 30.19F VIDALIA SUNNY 63 37 39 CALM 30.18F EASTMAN FAIR 64 7 11 N6 30.22F HAZLEHURST FAIR 63 34 34 N8 30.17F ALMA SUNNY 63 33 32 N8 30.18F 6HR MIN TEMP: 39; 6HR MAX TEMP: 63; WAYCROSS SUNNY 67 37 33 NW6 30.17F JESUP FAIR 63 41 45 NW12 30.16F BAXLEY FAIR 63 37 39 N8 30.17F BRUNSWICK SUNNY 64 41 42 N7 30.16F SAINT SIMONS SUNNY 63 33 32 N7 30.15F 6HR MIN TEMP: 46; 6HR MAX TEMP: 63; $$ SCZ027-028-034-036>038-045-046-048>050-GAZ119-141-021900- ...LAKE AND SUPPLEMENTAL COASTAL OBSERVATIONS... STATION/POSITION TIME TEMP WIND PRES WAVE SWELL AIR SEA DIR/SP/G HT/PER HT/PER/DIR (UTC) (F) (DEG/KT/KT) (MB) (FT/S) (FT/S/D) WINYAH BAY NOT AVBL LAKE MURRAY 1750 55 190/ 9/ 10 1021.0F ACE BASIN NERRS 1745 60 360/ 3 1021.0F FORT PULASKI 1800 57 63 330/ 9/ 12 1021.3 SAPELO ISLAND 1800 63 330/ 7 1021.0 $$ ANZ835-935-AMZ111-154-330-350-352-354-370-450-454-472-021900- ...C-MAN AND BUOY OBSERVATIONS... STATION/POSITION TIME TEMP WIND PRES WAVE SWELL AIR SEA DIR/SP/G HT/PER HT/PER/DIR (UTC) (F) (DEG/KT/KT) (MB) (FT/S) (FT/S/D) BUOY 41004 1750 58 74 360/ 14/ 17 1019.5F 3/ 9 2/130/ 9 BUOY 41008 1750 56 65 320/ 12/ 14 1020.9F 2/ 9 2/ 90/ 9 FOLLY BEACH CMAN 1800 59 340/ 6/ 9 1021.5F CAPERS NEARSHORE 1808 56 63 20/ 8/ 10 1020.6F FRIPP NEARSHORE 1808 56 64 20/ 8/ 12 1021.0F STATION/POSITION TIME TEMP WIND PRES WAVE SWELL AIR SEA DIR/SP/G HT/PER HT/PER/DIR (UTC) (F) (DEG/KT/KT) (MB) (FT/S) (FT/S/D) 5E ST. MARYS GA 1800 67 N/A 2/ 9 FRYING PAN BUOY 1810 56 75 350/ 16/ 21 1019.0 BUOY 41025 1750 56 77 350/ 12/ 16 1018.0F 4/ 7 3/140/ 7 CAPE LOOKOUT NC 1800 55 320/ 6/ 8 1018.3F BUOY 41002 1750 70 74 310/ 12/ 16 1016.5F 5/ 6 3/160/ 8 BUOY 41010 NOT AVBL ST AUGUSTINE FL 1800 59 67 10/ 9/ 10 1022.0F $$

USA.gov is the U.S. government's official web portal to all federal, state and local government web resources and services.